Timeline UpdatesTrip UpdatesNews PostsPvt PostsTravel TipsAdmin PostsConv PostsFollowed PostsChat RequestsBlog PostsPNR Posts

Disclaimer
Search
 
 
Sat Apr 19, 2014 13:33:08 ISTHomeTrainsΣChainsAtlasPNRForumGalleryNewsFAQTripsMembersLoginFeedback
No Recent News for this Train
Other Trains in the News **new
Latest...
.
Tue Jan 22, 2013 (09:18AM)
⇐ Return Journey: Train# 51421

51422/Nizamabad Pune Passenger (UnReserved)

Jan 16 2014 (7:31PM)
Change Departure Station:
Change Arrival Station:
Post a Train Travel TipPost a Train Travel Tip **new
Post a Comment/Question/Picture/VideoPost a Comment/Question/Picture/Video
Pantry/Catering
✕ NO Pantry Car
✓ Catering Avbl
Loco/Rake Reversals
DD/Daund Junction (7);
RSA - Rake Sharing
51433-34 and 51451-52
Rake/Coach Composition
SLR, UR, UR, UR, UR, UR, UR, UR, SLR,
Loco
PUNE WDM/G-3A / WDM-3D
News    PNR    Forum    Time-Table    Availability    Fare Chart    Map    Arr/Dep History    Trips    Gallery    ΣChains    X/O    Timeline    
Travel Time: 21h 15m    83 halts    Distance: 774 km    Avg Speed: 36 km/hr
Type: Passenger
Zone: CR/Central
Departs @ 23:40 (Avg 1h 47m late)
Platform# ???
SMTWTFS
Nizamabad/NZB 
Arrives @ 20:55 +1 night (Avg 3h 10m late)
Platform# 6
SMTWTFS
Pune Junction/PUNE 

83 halts. 94 intermediate Stations between Nizamabad and Pune Junction

Show ALL intermediate Stations  Show Old Time-Table

#CodeStation NameX/OArrivesAvgDepartsAvgHaltPFDay#KmSpeedElevZoneAddress
1NZB»Nizamabad (3)»  -23:40+1:47--10.047384mSCRNizamabad, Andhra Pradesh
2JKMJankampet Junction (1)  23:48+1:5023:49+1:501m116.256391mSCRJankampet Junction nizamabad dist., Andhra Pradesh
3NVTNavipet (2)  23:59+1:5000:01+1:512m--115.653374mSCRNizamabad, Andhra Pradesh
4FKBFakrabad (1)  00:09-00:10-1m--222.667348mSCRBasara, Andhra Pradesh
5BSXBasar (2)  00:16+1:4900:18+1:502m1229.459358mSCRDist Adilabad, Andhra Pradesh
6DABDharmabad (2)  00:28+1:5500:29+1:561m--239.268354mSCRDegaon, Maharashtra
7KEKKarkheliX  00:41+1:5700:42+1:581m--252.856358mSCRBiloli, Maharashtra
8BLSABolsaXO  00:50+2:0000:51+2:021m--260.222361mSCRDharmabad, Maharashtra
9UMRIUmriXO  01:14+1:5101:15+1:521m--268.752381mSCRNanded, Maharashtra
10SLGHShelgaon Halt  01:24-01:25-1m--276.567378mSCRMudkhed, Maharashtra
11SVNSivungaonX  01:29+1:5801:30+1:591m--280.915395mSCRNanded, Maharashtra
12MUEMudkhed Junction (4)  01:58+2:0802:00+2:092m--288.161378mSCRMudkhed, Maharashtra
13MGCMugat  02:09+2:1202:10+2:161m--297.350360mSCRNanded, Maharashtra
14PARDPathrad  02:14-02:15-1m--2100.648363mSCRHuzur Sahib Nanded, Maharashtra
15MTDIMaltekdi  02:24-02:25-1m--2107.711362mSCRNanded, Maharashtra
16NEDHazur Sahib Nanded (4)  02:40+1:5802:45+2:135m22110.577366mSCRNanded ph.no 09730471954, Maharashtra
17WNGWanegaonX  02:50-02:51-1m--2116.940371mSCRChudawa, Maharashtra
18LBGLimbgaonX  02:58+2:2402:59+2:271m--2121.672390mSCRHuzur Sahib Nanded, Maharashtra
19CRUChudawa (1)X  03:07+2:2903:08+2:331m12131.235392mSCRHingoli, Maharashtra
20PAUPurna Junction (4)X  03:25+2:2903:30+2:425m--2141.152384mSCRPurna, Maharashtra
21MQLMirkhal  03:44+2:4303:45+2:451m--2153.254405mSCRPurna, Maharashtra
22PIZPingliX  03:51+2:4803:52+2:491m--2158.560399mSCRParbhani, Maharashtra
23PBNParbhani Junction (3)X  04:03+2:4404:05+2:462m12169.566414mSCRParbhani 431401, Maharashtra
24PGPergaon  04:16+2:5404:17+2:541m--2181.673441mSCRParbhani, Maharashtra
25DAVDevalgaon Avchar  04:22-04:23-1m--2187.792425mSCRParbhani, Maharashtra
26MVOManwath Road (2)  04:29+2:5904:30+3:011m--2196.982421mSCRParbhani, Maharashtra
27DGPPDhengli Pimpalgaon  04:34+4:0604:35+4:051m--2202.496407mSCRSatuna, Maharashtra
28SELUSelu (2)  04:41+3:1004:42+3:141m--2211.987436mSCRParbhani, Maharashtra
29SCOSatuna  04:49+3:1704:50+3:181m--2222.153440mSCRSatona, Maharashtra
30UPRUsmanpur  04:59+3:1905:00+3:201m--2230.020444mSCRUsmanpur, Maharashtra
31PTUPartur (2)X  05:29+3:0205:30+3:081m--2239.648465mSCRJalna, Maharashtra
32PDGParadgaon  05:39+3:0505:40+3:051m--2246.742454mSCRUsmanpur, Maharashtra
33RNERanjaniO  05:49+3:0505:50+3:071m--2253.023469mSCRJalna, Maharashtra
34KODIKodiX  06:19+2:5006:20+2:501m--2264.243473mSCRRanjani, Maharashtra
35SVDSarwari  06:34+2:4806:35+2:491m--2274.221493mSCRRanjani, Maharashtra
36JJalna (3)  07:03+2:3007:05+2:342m--2283.960502mSCRJalna, Maharashtra
37BDUBadnapur  07:24+2:3607:25+2:401m--2302.966523mSCRJalna, Maharashtra
38KMVKarmadX  07:39+2:4307:40+2:451m--2318.326567mSCRAurangabad, Maharashtra
39CTHChikalthan  07:49+2:5007:50+2:541m--2322.3-582mSCRAurangabad, Maharashtra
40MKDDMukundwadi Halt (1)  07:54+2:4507:55+2:451m12336.630580mSCRAurangabad, Maharashtra
41AWBAurangabad (5)X  08:15+2:4008:20+2:435m--2346.653561mSCRAurangabad 431001, Maharashtra
42DLBDaulatabad  08:34+2:4808:35+2:491m--2359.040575mSCRDaulatabad, Maharashtra
43POZPotul (1)  08:49+2:4508:50+2:451m12368.337554mSCRLasur, Maharashtra
44LSRLasur (2)  09:09+2:3809:10+2:391m--2380.168536mSCRAurangabad, Maharashtra
45KAJGKaranjgaon  09:19+2:3809:20+2:391m--2390.331523mSCRLasur, Maharashtra
46PSDParsoda  09:29+2:3609:30+2:381m--2394.953530mSCRRotegaon, Maharashtra
47RGORotegaonX  09:44+2:3409:45+2:361m--2407.393547mSCRAurangabad, Maharashtra
48TRTarur  09:59+2:3610:00+2:401m--2429.019586mSCRTaru, Maharashtra
49NSLNagarsol (2)  10:19+2:2710:20+2:291m--2435.225589mSCRDist. Nashik, Maharashtra
50MMRManmad Junction (6)X  11:30+2:1511:40+2:2310m42460.120580mCRManmad 423104, Maharashtra
51ANKAnkai (3)  12:18+012:20+02m22473.072620mSCRDist. Nashik, Maharashtra
52YLYeola (2)  12:33+2:4412:35+2:502m--2488.763553mCRYeola, Maharashtra
53KPGKopargaon (2)12:48+2:5012:50+2:572m12502.366508mCRKopargaon Tel: 02423-222268, Maharashtra
54SNVRSanvatsarX  12:57+2:5612:58+2:561m--2510.058521mCRNagpur-Aurngabad-Mumbai Hwy, Maharashtra
55KNGNKanhegaon (2)X  13:06+2:5613:08+2:592m--2517.754498mCRAhmadnagar, Maharashtra
56PBPuntamba Junction (2)  13:18+2:5913:20+3:012m22526.666501mCRPuntamba, Maharashtra
57CITChitali (1)X13:28+3:0313:30+3:062m12535.525531mCRAhmadnagar, Maharashtra
58BAPBelapur (2)  13:58+2:5114:00+2:552m22546.953541mCRShrirampur, Maharashtra
59NPWNipani Vadgaon (2)  14:07+2:5714:08+2:571m--2553.251531mCRChitali, Maharashtra
60PDGNPadhegaon (1)  14:15+2:5614:17+3:022m12559.178512mCRBelapur, Maharashtra
61TKMYTaklimiya (1)  14:24+3:0214:25+3:021m12568.239511mCRVambori, Maharashtra
62RRIRahuri (2)X  14:33+3:0114:35+3:042m--2573.361519mCRAhmadnagar, Maharashtra
63VBRVambori (1)X  14:48+3:0314:50+3:052m12586.625547mCRAhmadnagar, Maharashtra
64VLVilad (1)X  15:18+2:5015:20+2:512m12598.157598mCRAhmadnagar, Maharashtra
65NNBNimblak (1)  15:29-15:30-1m12606.722656mCRAhmednagar, Maharashtra
66ANGAhmadnagar (2)  15:50+2:3515:55+2:375m12614.040650mCRAhmednagar 414001, Maharashtra
67AKRAkolner (1)  16:14+2:3916:15+2:451m12626.843689mCRAhmadnagar, Maharashtra
68SRLSarola (2)  16:23+2:4516:25+2:542m12632.5450mCRAhmadnagar, Maharashtra
69RNJDRanjangaon Road (1)X  16:39+2:5116:40+2:551m12643.046656mCRDist. Pune, Maharashtra
70VPRVisapur (2)X  16:48+2:5516:50+3:032m12649.229186mCRAhmadnagar, Maharashtra
71BWDBelwandi (2)X  17:18+2:4917:20+2:552m12662.965592mCRAhmadnagar, Maharashtra
72SGNDShrigonda Road (2)X  17:33+2:5517:35+2:582m22677.021547mCRAhmadnagar, Maharashtra
73KSTHKashti (2)  17:59+2:4618:00+3:001m12685.317540mCRDaund, Maharashtra
74DDDaund Junction (7)X18:45+2:3819:00+3:0015m42698.250521mCRNew Daund Dist. Pune 413801, Maharashtra
75PAAPatas (3)  19:14+3:0819:15+3:111m12709.858532mCRDist. Pune 412219, Maharashtra
76KDTNKadethanX  19:20+3:0919:21+3:091m12714.638532mCRDaund, Maharashtra
77KDGKedgaon (2)  19:29+3:0919:30+3:121m22719.764544mCRDist. Pune 412203, Maharashtra
78KTTKhutbavX  19:36+3:1019:37+3:101m12726.142558mCRShirur-Daund Rd Daund, Maharashtra
79YTYevat (2)X  19:46+3:1019:47+3:141m12732.363550mCRDist. Pune 412214, Maharashtra
80URIUruli (2)  19:59+3:1420:00+3:201m12745.062553mCRDist. Pune 412202, Maharashtra
81LONILoni (2)  20:12+3:1920:13+3:231m12757.356541mCRPune 412201, Maharashtra
82MJBKManjari Budruk (2)X  20:19+3:2120:20+3:211m12763.042550mCRPune 412307, Maharashtra
83HDPHadapsar (3)  20:27+3:2120:28+3:231m22767.936554mCRPune 411028, Maharashtra
84GPRWGhorpuri West (2)  20:34-20:35-1m12771.57552mCRPune 411001, Maharashtra
85PUNE•Pune Junction (6)•  20:55+3:10-62773.7-556mCRPune 411001, Maharashtra
Scroll to Top
Scroll to Bottom